Ravenna, OH

4:11 PM EST on December 18, 2017 (GMT -0500)
Ravenna

Weather History for KPOV - March, 2014

Change the Weather History Date:

Tuesday, March 25, 2014

  Actual Average (KCAK) Record (KCAK)
Temperature  
Mean Temperature 25 °F -  
Max Temperature 35 °F 48 °F 81 °F (1945)
Min Temperature 15 °F 28 °F 1 °F (1974)
Degree Days  
Heating Degree Days 40    
Moisture  
Dew Point 14 °F    
Average Humidity 65    
Maximum Humidity 90    
Minimum Humidity 28    
Precipitation  
Precipitation 0.00 in - - ()
Sea Level Pressure  
Sea Level Pressure 29.96 in    
Wind  
Wind Speed 4 mph (West)    
Max Wind Speed 14 mph    
Max Gust Speed 33 mph    
Visibility 9 miles    
Events Snow    
Averages and records for this station are not official NWS values.
T = Trace of Precipitation, MM = Missing Value Source: NWS Daily Summary

Daily Weather History Graph

Daily Weather History Graph

Search for Another Location

Airport or City:

Trip Planner

Search our weather history database for the weather conditions in past years. The results will help you decide how hot, cold, wet, or windy it might be!

Date:

Astronomy

Mar. 25, 2014 Rise Set
Actual Time 7:19 AM EDT 7:42 PM EDT
Civil Twilight 6:52 AM EDT 8:10 PM EDT
Nautical Twilight 6:19 AM EDT 8:42 PM EDT
Astronomical Twilight 5:46 AM EDT 9:16 PM EDT
Moon 3:43 AM EDT (3/25) 2:08 PM EDT (3/25)
Length of Visible Light 13h 17m
Length of Day
12h 22m
Waning Crescent, 32% of the Moon is Illuminated
Mar 25
Waning Crescent
Mar 30
New
Apr 7
First Quarter
Apr 15
Full
Apr 22
Last Quarter

Hourly Weather History & Observations

Time (EDT) Temp. Windchill Dew Point Humidity Pressure Visibility Wind Dir Wind Speed Gust Speed Precip Events Conditions
12:14 AM 19.8 °F - 11.1 °F 69% 30.07 in 10.0 mi Calm Calm - N/A   Clear
12:34 AM 18.5 °F - 12.2 °F 76% 30.06 in 10.0 mi Calm Calm - N/A   Clear
12:55 AM 20.1 °F - 12.2 °F 71% 30.05 in 10.0 mi Calm Calm - N/A   Mostly Cloudy
1:15 AM 21.2 °F - 12.4 °F 69% 30.04 in 10.0 mi Calm Calm - N/A   Overcast
1:34 AM 21.2 °F - 13.1 °F 71% 30.04 in 10.0 mi Calm Calm - N/A   Mostly Cloudy
1:54 AM 22.3 °F 17.6 °F 12.9 °F 67% 30.04 in 10.0 mi SW 3.5 mph - N/A   Overcast
2:15 AM 22.1 °F - 12.0 °F 65% 30.03 in 10.0 mi Calm Calm - N/A   Mostly Cloudy
2:34 AM 22.1 °F 15.9 °F 12.0 °F 65% 30.03 in 10.0 mi West 4.6 mph - N/A   Scattered Clouds
2:54 AM 21.4 °F - 12.2 °F 68% 30.02 in 10.0 mi Calm Calm - N/A   Clear
3:14 AM 21.2 °F 16.4 °F 12.7 °F 70% 30.01 in 10.0 mi WNW 3.5 mph - N/A   Clear
3:34 AM 21.6 °F - 12.9 °F 69% 30.01 in 10.0 mi Calm Calm - N/A   Clear
3:55 AM 21.2 °F 16.4 °F 12.7 °F 70% 30.01 in 10.0 mi West 3.5 mph - N/A   Clear
4:14 AM 21.2 °F 13.6 °F 12.2 °F 68% 30.01 in 10.0 mi West 5.8 mph - N/A   Clear
4:34 AM 21.2 °F 16.4 °F 12.0 °F 68% 30.00 in 10.0 mi West 3.5 mph - N/A   Clear
4:55 AM 19.8 °F - 12.9 °F 75% 30.00 in 10.0 mi Calm Calm - N/A   Clear
5:15 AM 18.3 °F - 12.6 °F 78% 30.00 in 10.0 mi Calm Calm - N/A   Clear
5:34 AM 17.8 °F - 13.3 °F 83% 29.99 in 10.0 mi Calm Calm - N/A   Clear
5:54 AM 17.6 °F - 13.1 °F 83% 29.98 in 10.0 mi Calm Calm - N/A   Clear
6:15 AM 16.7 °F - 12.7 °F 84% 29.98 in 10.0 mi Calm Calm - N/A   Clear
6:34 AM 17.1 °F - 12.6 °F 82% 29.97 in 10.0 mi Calm Calm - N/A   Clear
6:54 AM 16.3 °F - 12.2 °F 84% 29.97 in 10.0 mi Calm Calm - N/A   Clear
7:14 AM 15.8 °F - 12.4 °F 86% 29.96 in 10.0 mi Calm Calm - N/A   Clear
7:34 AM 16.2 °F - 12.4 °F 85% 29.96 in 10.0 mi Calm Calm - N/A   Clear
7:55 AM 16.5 °F - 12.4 °F 84% 29.95 in 10.0 mi Calm Calm - N/A   Clear
8:15 AM 18.9 °F 13.7 °F 13.8 °F 81% 29.95 in 10.0 mi SE 3.5 mph - N/A   Clear
8:34 AM 21.0 °F - 14.0 °F 74% 29.95 in 10.0 mi Calm Calm - N/A   Clear
8:54 AM 22.3 °F 14.9 °F 13.3 °F 68% 29.95 in 10.0 mi SSE 5.8 mph - N/A   Clear
9:15 AM 24.3 °F 16.3 °F 13.6 °F 64% 29.95 in 10.0 mi SSE 6.9 mph - N/A   Clear
9:34 AM 25.5 °F 18.7 °F 14.2 °F 62% 29.95 in 10.0 mi SSE 5.8 mph - N/A   Clear
9:55 AM 26.6 °F 19.1 °F 12.2 °F 55% 29.95 in 10.0 mi SE 6.9 mph - N/A   Mostly Cloudy
10:14 AM 28.6 °F 22.4 °F 12.7 °F 52% 29.94 in 10.0 mi SE 5.8 mph - N/A   Scattered Clouds
10:34 AM 28.8 °F 25.0 °F 11.3 °F 48% 29.94 in 10.0 mi South 3.5 mph - N/A   Mostly Cloudy
10:54 AM 30.2 °F 25.4 °F 12.0 °F 47% 29.94 in 10.0 mi SSE 4.6 mph - N/A   Mostly Cloudy
11:15 AM 30.6 °F 25.8 °F 9.5 °F 41% 29.94 in 10.0 mi South 4.6 mph - N/A   Overcast
11:34 AM 32.2 °F 26.7 °F 10.4 °F 40% 29.93 in 10.0 mi SE 5.8 mph - N/A   Mostly Cloudy
11:54 AM 31.5 °F 25.8 °F 5.5 °F 34% 29.93 in 10.0 mi WSW 5.8 mph - N/A   Mostly Cloudy
12:14 PM 32.4 °F 26.9 °F 7.9 °F 36% 29.92 in 10.0 mi SSE 5.8 mph - N/A   Scattered Clouds
12:35 PM 33.6 °F 26.8 °F 8.1 °F 34% 29.92 in 10.0 mi SW 8.1 mph - N/A   Mostly Cloudy
12:54 PM 33.4 °F 25.4 °F 5.5 °F 31% 29.91 in 10.0 mi SW 10.4 mph - N/A   Mostly Cloudy
1:15 PM 34.0 °F 27.2 °F 7.2 °F 33% 29.90 in 10.0 mi SW 8.1 mph - N/A   Mostly Cloudy
1:34 PM 34.9 °F 28.3 °F 7.5 °F 32% 29.90 in 10.0 mi South 8.1 mph - N/A   Mostly Cloudy
1:54 PM 35.1 °F 28.6 °F 7.3 °F 31% 29.89 in 10.0 mi SSW 8.1 mph - N/A   Mostly Cloudy
2:14 PM 34.5 °F 28.6 °F 4.3 °F 28% 29.89 in 10.0 mi South 6.9 mph - N/A   Mostly Cloudy
2:34 PM 33.4 °F 26.6 °F 5.0 °F 30% 29.88 in 10.0 mi WSW 8.1 mph 11.5 mph N/A   Scattered Clouds
2:54 PM 35.8 °F 27.8 °F 6.8 °F 30% 29.87 in 10.0 mi WSW 11.5 mph - N/A   Mostly Cloudy
3:15 PM 34.9 °F 29.9 °F 4.8 °F 28% 29.86 in 10.0 mi West 5.8 mph - N/A   Overcast
3:34 PM 34.9 °F 26.6 °F 5.5 °F 29% 29.86 in 10.0 mi SSW 11.5 mph - N/A   Overcast
3:55 PM 34.9 °F 28.3 °F 7.3 °F 32% 29.85 in 10.0 mi West 8.1 mph 18.4 mph N/A   Overcast
4:14 PM 34.5 °F 25.7 °F 6.4 °F 31% 29.85 in 10.0 mi West 12.7 mph 16.1 mph N/A   Overcast
4:34 PM 32.4 °F 24.0 °F 20.7 °F 62% 29.87 in 10.0 mi NW 10.4 mph 18.4 mph N/A   Overcast
4:54 PM 28.2 °F 17.2 °F 22.6 °F 80% 29.89 in 1.0 mi NW 13.8 mph 21.9 mph N/A Snow Light Snow
5:14 PM 26.1 °F 14.5 °F 22.6 °F 87% 29.90 in 0.5 mi WNW 13.8 mph 21.9 mph N/A Snow Light Snow
5:35 PM 25.3 °F 16.0 °F 22.8 °F 90% 29.91 in 0.5 mi NW 9.2 mph 16.1 mph N/A Snow Light Snow
5:54 PM 25.3 °F 17.6 °F 22.1 °F 87% 29.91 in 0.5 mi NW 6.9 mph - N/A Snow Light Snow
6:14 PM 25.7 °F 17.1 °F 22.6 °F 88% 29.92 in 1.5 mi NW 8.1 mph - N/A Snow Light Snow
6:34 PM 26.2 °F 16.4 °F 22.5 °F 86% 29.92 in 3.0 mi WNW 10.4 mph 17.3 mph N/A Snow Light Snow
6:54 PM 26.2 °F 18.6 °F 22.3 °F 85% 29.93 in 3.0 mi WNW 6.9 mph - N/A Snow Light Snow
7:14 PM 26.4 °F 17.3 °F 21.2 °F 81% 29.94 in 7.0 mi NW 9.2 mph - N/A   Mostly Cloudy
7:34 PM 25.7 °F 17.1 °F 19.9 °F 79% 29.95 in 10.0 mi WNW 8.1 mph - N/A   Mostly Cloudy
7:54 PM 26.2 °F 22.1 °F 20.1 °F 78% 29.95 in 10.0 mi WNW 3.5 mph - N/A Snow Light Snow
8:15 PM 25.7 °F 18.0 °F 19.0 °F 76% 29.95 in 10.0 mi WNW 6.9 mph - N/A   Scattered Clouds
8:34 PM 25.7 °F 14.6 °F 16.7 °F 69% 29.96 in 10.0 mi WNW 12.7 mph 16.1 mph N/A   Mostly Cloudy
8:54 PM 25.7 °F 14.0 °F 16.3 °F 68% 29.97 in 10.0 mi WNW 13.8 mph - N/A   Mostly Cloudy
9:15 PM 25.5 °F 16.2 °F 16.7 °F 69% 29.98 in 10.0 mi WNW 9.2 mph - N/A   Mostly Cloudy
9:34 PM 25.3 °F 14.7 °F 17.6 °F 72% 29.98 in 10.0 mi NW 11.5 mph 17.3 mph N/A   Mostly Cloudy
9:55 PM 25.2 °F 15.7 °F 18.5 °F 76% 29.99 in 10.0 mi NW 9.2 mph - N/A Snow Light Snow
10:14 PM 24.3 °F 15.4 °F 18.5 °F 79% 29.99 in 10.0 mi WNW 8.1 mph - N/A   Mostly Cloudy
10:34 PM 24.1 °F 13.7 °F 18.0 °F 77% 30.00 in 4.0 mi WNW 10.4 mph - N/A Snow Light Snow
10:55 PM 23.9 °F 16.8 °F 18.3 °F 79% 30.01 in 10.0 mi NW 5.8 mph - N/A Snow Light Snow
11:14 PM 22.8 °F 11.5 °F 19.4 °F 87% 30.02 in 0.2 mi WNW 11.5 mph 33.4 mph N/A Snow Heavy Snow
11:35 PM 22.5 °F 13.2 °F 19.0 °F 87% 30.02 in 7.0 mi WNW 8.1 mph 17.3 mph N/A   Overcast
11:54 PM 22.5 °F 13.2 °F 18.9 °F 86% 30.03 in 2.5 mi WNW 8.1 mph - N/A Snow Light Snow